Station History

Weather Underground - logo

Station Historical Data
Daily Summary for July 11, 2017 Units:  English    Metric   Both
« Previous Day
Next Day »
Daily Weekly Monthly Yearly Custom
  High: Low: Average:
Temperature: 101.6 °F 69.5 °F 86.3 °F
Dew Point: 68.8 °F 51.9 °F 61.3 °F
Humidity: 74 % 21 % 47 %
Wind Speed: 6.9 mph 0.0 mph 1.3 mph
Wind Gust: 6.9 mph - -
Wind:- - SSW
Pressure: 29.83 in 29.71 in -
Precipitation: 0.00 in    
Historical Graphs
 
 
Tabular Data for July 11, 2017
Time Temperature Dew Point Pressure Wind Wind Speed Wind Gust Humidity Rainfall Rate (Hourly)
00:03 79.4 °F 64.3 °F 29.76 in East 1.2 mph   60 % 0.00 in
00:08 79.5 °F 63.9 °F 29.76 in East 1.2 mph   59 % 0.00 in
00:13 79.5 °F 63.9 °F 29.76 in East 1.2 mph 1.2 mph 59 % 0.00 in
00:18 79.5 °F 63.9 °F 29.76 in East 1.2 mph 1.2 mph 59 % 0.00 in
00:23 79.3 °F 63.7 °F 29.76 in East 1.2 mph   59 % 0.00 in
00:28 79.2 °F 63.6 °F 29.77 in Calm   0.1 mph 59 % 0.00 in
00:33 79.2 °F 63.6 °F 29.77 in SE 1.2 mph 1.2 mph 59 % 0.00 in
00:38 79.2 °F 63.6 °F 29.77 in SE 1.2 mph   59 % 0.00 in
00:43 78.9 °F 63.8 °F 29.77 in Calm     60 % 0.00 in
00:48 78.6 °F 63.6 °F 29.76 in Calm     60 % 0.00 in
00:53 78.3 °F 63.7 °F 29.76 in Calm     61 % 0.00 in
00:58 78.1 °F 64.0 °F 29.76 in Calm     62 % 0.00 in
01:03 77.9 °F 63.4 °F 29.76 in Calm     61 % 0.00 in
01:09 77.7 °F 63.6 °F 29.76 in Calm     62 % 0.00 in
01:14 77.5 °F 63.5 °F 29.76 in Calm     62 % 0.00 in
01:19 77.5 °F 63.5 °F 29.77 in Calm     62 % 0.00 in
01:24 77.2 °F 63.2 °F 29.76 in Calm     62 % 0.00 in
01:29 77.2 °F 62.7 °F 29.76 in Calm     61 % 0.00 in
01:34 77.1 °F 62.6 °F 29.76 in Calm     61 % 0.00 in
01:39 77.0 °F 62.5 °F 29.76 in Calm     61 % 0.00 in
01:44 76.9 °F 62.9 °F 29.77 in Calm     62 % 0.00 in
01:45 76.8 °F 62.8 °F 29.76 in Calm     62 % 0.00 in
01:50 76.5 °F 62.5 °F 29.76 in SE 1.2 mph   62 % 0.00 in
01:55 76.3 °F 62.3 °F 29.76 in Calm     62 % 0.00 in
02:00 76.2 °F 62.2 °F 29.76 in Calm     62 % 0.00 in
02:05 76.1 °F 62.1 °F 29.76 in Calm     62 % 0.00 in
02:10 75.9 °F 62.4 °F 29.76 in Calm     63 % 0.00 in
02:15 75.7 °F 62.2 °F 29.76 in Calm     63 % 0.00 in
02:20 75.4 °F 61.9 °F 29.76 in Calm     63 % 0.00 in
02:25 75.3 °F 62.3 °F 29.76 in Calm     64 % 0.00 in
02:30 75.1 °F 62.1 °F 29.76 in Calm     64 % 0.00 in
02:35 75.1 °F 62.1 °F 29.76 in Calm     64 % 0.00 in
02:40 74.9 °F 62.3 °F 29.76 in Calm     65 % 0.00 in
02:45 74.8 °F 61.8 °F 29.76 in Calm     64 % 0.00 in
02:50 74.8 °F 62.2 °F 29.76 in Calm     65 % 0.00 in
02:55 74.7 °F 62.6 °F 29.76 in Calm     66 % 0.00 in
03:00 74.5 °F 62.4 °F 29.76 in Calm     66 % 0.00 in
03:05 74.1 °F 62.0 °F 29.76 in Calm     66 % 0.00 in
03:10 73.9 °F 62.2 °F 29.77 in Calm     67 % 0.00 in
03:15 73.6 °F 62.0 °F 29.76 in Calm     67 % 0.00 in
03:20 73.4 °F 61.8 °F 29.76 in Calm     67 % 0.00 in
03:25 73.4 °F 61.8 °F 29.76 in Calm     67 % 0.00 in
03:30 73.3 °F 62.9 °F 29.76 in Calm     70 % 0.00 in
03:35 73.1 °F 61.9 °F 29.76 in Calm     68 % 0.00 in
03:40 72.8 °F 62.0 °F 29.76 in Calm     69 % 0.00 in
03:45 72.6 °F 62.3 °F 29.76 in Calm     70 % 0.00 in
03:50 72.4 °F 62.1 °F 29.76 in Calm     70 % 0.00 in
03:55 72.2 °F 61.9 °F 29.77 in Calm     70 % 0.00 in
04:00 72.0 °F 62.1 °F 29.77 in Calm     71 % 0.00 in
04:05 72.0 °F 61.7 °F 29.77 in Calm     70 % 0.00 in
04:10 71.9 °F 61.6 °F 29.77 in Calm     70 % 0.00 in
04:15 71.7 °F 61.8 °F 29.77 in Calm     71 % 0.00 in
04:20 71.6 °F 61.7 °F 29.77 in Calm     71 % 0.00 in
04:25 71.5 °F 62.0 °F 29.77 in Calm     72 % 0.00 in
04:31 71.5 °F 62.0 °F 29.77 in Calm     72 % 0.00 in
04:36 71.4 °F 61.9 °F 29.77 in Calm     72 % 0.00 in
04:41 71.2 °F 61.7 °F 29.77 in Calm     72 % 0.00 in
04:46 71.1 °F 61.6 °F 29.77 in SE 1.2 mph 1.2 mph 72 % 0.00 in
04:51 71.0 °F 61.5 °F 29.77 in Calm     72 % 0.00 in
04:56 70.9 °F 61.4 °F 29.77 in Calm     72 % 0.00 in
05:01 70.7 °F 61.6 °F 29.77 in SE 1.2 mph 1.2 mph 73 % 0.00 in
05:06 70.6 °F 61.1 °F 29.77 in SE 1.2 mph 1.2 mph 72 % 0.00 in
05:11 70.4 °F 61.3 °F 29.78 in Calm     73 % 0.00 in
05:16 70.2 °F 61.1 °F 29.78 in SE 1.2 mph 1.2 mph 73 % 0.00 in
05:21 70.0 °F 60.9 °F 29.79 in SE 1.2 mph   73 % 0.00 in
05:26 70.0 °F 60.9 °F 29.79 in Calm     73 % 0.00 in
05:31 69.9 °F 61.2 °F 29.79 in Calm     74 % 0.00 in
05:36 69.8 °F 61.1 °F 29.79 in Calm     74 % 0.00 in
05:41 69.6 °F 60.9 °F 29.79 in Calm     74 % 0.00 in
05:46 69.6 °F 60.9 °F 29.79 in Calm     74 % 0.00 in
05:51 69.6 °F 60.9 °F 29.79 in Calm     74 % 0.00 in
05:56 69.5 °F 60.8 °F 29.79 in Calm     74 % 0.00 in
06:01 69.5 °F 60.8 °F 29.80 in Calm     74 % 0.00 in
06:03 69.6 °F 60.9 °F 29.80 in Calm     74 % 0.00 in
06:08 69.6 °F 60.9 °F 29.80 in SE 1.2 mph 1.2 mph 74 % 0.00 in
06:13 69.7 °F 61.0 °F 29.80 in ESE 1.2 mph 1.2 mph 74 % 0.00 in
06:18 69.6 °F 60.9 °F 29.80 in ESE 1.2 mph   74 % 0.00 in
06:23 69.5 °F 60.8 °F 29.81 in ESE 1.2 mph 1.2 mph 74 % 0.00 in
06:28 69.7 °F 61.0 °F 29.81 in Calm     74 % 0.00 in
06:33 69.9 °F 60.8 °F 29.81 in ESE 1.2 mph   73 % 0.00 in
06:38 70.1 °F 61.0 °F 29.81 in Calm     73 % 0.00 in
06:43 70.5 °F 61.0 °F 29.81 in Calm   0.1 mph 72 % 0.00 in
06:48 70.9 °F 61.0 °F 29.81 in ESE 1.2 mph 1.2 mph 71 % 0.00 in
06:53 71.8 °F 61.5 °F 29.81 in East 1.2 mph 1.2 mph 70 % 0.00 in
06:58 72.9 °F 61.3 °F 29.81 in SSW 1.2 mph 1.2 mph 67 % 0.00 in
07:03 73.7 °F 61.6 °F 29.82 in SE 1.2 mph 1.2 mph 66 % 0.00 in
07:08 74.6 °F 62.1 °F 29.82 in Calm     65 % 0.00 in
07:13 75.2 °F 61.7 °F 29.82 in SSE 1.2 mph   63 % 0.00 in
07:18 75.4 °F 61.5 °F 29.82 in Calm     62 % 0.00 in
07:23 75.5 °F 61.1 °F 29.82 in ENE 2.3 mph 2.3 mph 61 % 0.00 in
07:28 75.5 °F 61.6 °F 29.82 in East 1.2 mph 1.2 mph 62 % 0.00 in
07:33 76.1 °F 61.7 °F 29.82 in SE 1.2 mph 1.2 mph 61 % 0.00 in
07:38 76.6 °F 61.2 °F 29.82 in SSE 3.5 mph 3.5 mph 59 % 0.00 in
07:43 77.4 °F 61.9 °F 29.83 in South 1.2 mph 1.2 mph 59 % 0.00 in
07:48 78.0 °F 61.5 °F 29.83 in South 2.3 mph 2.3 mph 57 % 0.00 in
07:50 78.2 °F 61.7 °F 29.83 in SE 3.5 mph 3.5 mph 57 % 0.00 in
07:55 78.9 °F 61.9 °F 29.83 in Calm     56 % 0.00 in
08:00 79.8 °F 61.7 °F 29.83 in South 2.0 mph 2.0 mph 54 % 0.00 in
08:05 80.1 °F 61.4 °F 29.83 in SSE 1.2 mph 1.2 mph 53 % 0.00 in
08:10 80.5 °F 61.8 °F 29.83 in Calm     53 % 0.00 in
08:15 81.2 °F 61.4 °F 29.83 in SSE 1.2 mph   51 % 0.00 in
08:20 81.7 °F 61.2 °F 29.83 in South 2.3 mph 2.3 mph 50 % 0.00 in
08:25 82.2 °F 61.7 °F 29.83 in SE 2.3 mph 2.3 mph 50 % 0.00 in
08:30 82.5 °F 60.8 °F 29.83 in East 3.5 mph 3.5 mph 48 % 0.00 in
08:35 82.9 °F 62.4 °F 29.83 in ESE 2.3 mph 2.3 mph 50 % 0.00 in
08:40 83.1 °F 62.5 °F 29.83 in East 1.2 mph 1.2 mph 50 % 0.00 in
08:45 83.6 °F 61.2 °F 29.83 in ESE 3.5 mph 3.5 mph 47 % 0.00 in
08:50 83.7 °F 61.3 °F 29.83 in ENE 2.3 mph 2.3 mph 47 % 0.00 in
08:55 84.0 °F 62.2 °F 29.83 in South 1.0 mph 1.0 mph 48 % 0.00 in
09:00 84.6 °F 60.3 °F 29.83 in SSE 3.5 mph 3.5 mph 44 % 0.00 in
09:05 85.0 °F 61.9 °F 29.83 in SSE 3.5 mph 3.5 mph 46 % 0.00 in
09:10 85.3 °F 60.9 °F 29.83 in South 3.5 mph 3.5 mph 44 % 0.00 in
09:15 85.6 °F 61.2 °F 29.83 in SE 3.5 mph 3.5 mph 44 % 0.00 in
09:20 85.8 °F 60.7 °F 29.83 in SSE 5.8 mph 5.8 mph 43 % 0.00 in
09:25 86.3 °F 61.8 °F 29.82 in South 6.9 mph 6.9 mph 44 % 0.00 in
09:30 86.8 °F 62.9 °F 29.82 in SSE 3.5 mph 3.5 mph 45 % 0.00 in
09:33 87.1 °F 61.9 °F 29.82 in SSE 3.5 mph 3.5 mph 43 % 0.00 in
09:38 87.5 °F 62.2 °F 29.82 in SSE 3.5 mph 3.5 mph 43 % 0.00 in
09:43 87.8 °F 61.2 °F 29.82 in SSE 4.6 mph 4.6 mph 41 % 0.00 in
09:48 87.9 °F 61.9 °F 29.82 in SE 3.5 mph 3.5 mph 42 % 0.00 in
09:53 88.0 °F 64.0 °F 29.82 in SSW 3.5 mph 3.5 mph 45 % 0.00 in
09:58 88.4 °F 62.4 °F 29.82 in SSW 3.5 mph 3.5 mph 42 % 0.00 in
10:03 88.4 °F 63.1 °F 29.82 in SE 3.5 mph 3.5 mph 43 % 0.00 in
10:08 88.8 °F 63.4 °F 29.82 in SSW 3.5 mph 3.5 mph 43 % 0.00 in
10:13 89.0 °F 62.9 °F 29.82 in SE 3.5 mph 3.5 mph 42 % 0.00 in
10:18 89.3 °F 61.8 °F 29.82 in South 4.6 mph 4.6 mph 40 % 0.00 in
10:23 89.1 °F 62.3 °F 29.82 in East 1.2 mph 1.2 mph 41 % 0.00 in
10:28 89.7 °F 62.9 °F 29.82 in SE 3.5 mph 3.5 mph 41 % 0.00 in
10:33 90.2 °F 61.2 °F 29.82 in North 2.3 mph 2.3 mph 38 % 0.00 in
10:38 90.5 °F 62.2 °F 29.82 in SSE 2.3 mph 2.3 mph 39 % 0.00 in
10:43 91.0 °F 61.9 °F 29.82 in South 2.0 mph 2.0 mph 38 % 0.00 in
10:48 91.3 °F 61.4 °F 29.82 in WSW 4.0 mph 4.0 mph 37 % 0.00 in
10:53 91.4 °F 63.0 °F 29.82 in East 3.5 mph   39 % 0.00 in
10:58 91.6 °F 63.1 °F 29.82 in West 1.2 mph 1.2 mph 39 % 0.00 in
11:03 92.0 °F 61.2 °F 29.82 in SE 3.5 mph 3.5 mph 36 % 0.00 in
11:08 92.0 °F 62.8 °F 29.82 in SE 2.3 mph 2.3 mph 38 % 0.00 in
11:14 92.1 °F 65.0 °F 29.82 in East 2.3 mph 2.3 mph 41 % 0.00 in
11:19 92.7 °F 63.4 °F 29.82 in SSW 3.5 mph 3.5 mph 38 % 0.00 in
11:24 93.1 °F 62.2 °F 29.82 in SE 3.5 mph 3.5 mph 36 % 0.00 in
11:29 93.2 °F 60.7 °F 29.82 in NW 3.5 mph 3.5 mph 34 % 0.00 in
11:34 92.9 °F 59.6 °F 29.82 in ESE 3.5 mph 3.5 mph 33 % 0.00 in
11:39 93.0 °F 59.6 °F 29.82 in NW 2.3 mph 2.3 mph 33 % 0.00 in
11:44 93.5 °F 61.7 °F 29.82 in East 1.2 mph   35 % 0.00 in
11:49 93.8 °F 62.0 °F 29.82 in NNW 1.2 mph 1.2 mph 35 % 0.00 in
11:54 93.9 °F 60.4 °F 29.82 in SSE 3.5 mph 3.5 mph 33 % 0.00 in
11:59 94.4 °F 60.9 °F 29.81 in North 3.5 mph 3.5 mph 33 % 0.00 in
12:04 94.0 °F 59.7 °F 29.82 in WNW 3.5 mph 3.5 mph 32 % 0.00 in
12:09 93.9 °F 59.6 °F 29.81 in NW 2.3 mph 2.3 mph 32 % 0.00 in
12:14 94.6 °F 61.0 °F 29.81 in SSW 1.2 mph   33 % 0.00 in
12:19 95.4 °F 60.9 °F 29.81 in NW 2.0 mph 2.0 mph 32 % 0.00 in
12:24 95.4 °F 60.9 °F 29.81 in South 3.0 mph 3.0 mph 32 % 0.00 in
12:29 95.7 °F 61.1 °F 29.81 in ENE 2.3 mph 2.3 mph 32 % 0.00 in
12:34 96.1 °F 60.6 °F 29.81 in SSE 3.5 mph 3.5 mph 31 % 0.00 in
12:39 96.3 °F 58.9 °F 29.81 in SE 2.3 mph 2.3 mph 29 % 0.00 in
12:44 96.6 °F 61.9 °F 29.81 in SSE 2.3 mph 2.3 mph 32 % 0.00 in
12:49 97.0 °F 60.4 °F 29.80 in SSE 2.3 mph 2.3 mph 30 % 0.00 in
12:54 97.1 °F 59.6 °F 29.80 in SSE 3.5 mph 3.5 mph 29 % 0.00 in
12:59 97.4 °F 59.8 °F 29.80 in NE 1.2 mph 1.2 mph 29 % 0.00 in
13:04 97.2 °F 58.7 °F 29.80 in NW 3.5 mph 3.5 mph 28 % 0.00 in
13:09 97.2 °F 57.6 °F 29.80 in North 3.0 mph 3.0 mph 27 % 0.00 in
13:14 97.7 °F 55.9 °F 29.80 in NW 2.3 mph 2.3 mph 25 % 0.00 in
13:19 98.2 °F 55.2 °F 29.80 in WNW 1.2 mph 1.2 mph 24 % 0.00 in
13:24 98.3 °F 55.3 °F 29.80 in NE 3.5 mph 3.5 mph 24 % 0.00 in
13:29 98.7 °F 56.8 °F 29.80 in NNE 2.3 mph 2.3 mph 25 % 0.00 in
13:34 99.2 °F 53.7 °F 29.80 in NW 3.5 mph 3.5 mph 22 % 0.00 in
13:39 99.1 °F 53.6 °F 29.80 in NE 3.5 mph 3.5 mph 22 % 0.00 in
13:44 99.0 °F 54.7 °F 29.79 in WSW 3.5 mph 3.5 mph 23 % 0.00 in
13:49 98.6 °F 51.9 °F 29.79 in NNW 3.5 mph 3.5 mph 21 % 0.00 in
13:54 98.3 °F 54.1 °F 29.79 in NNW 2.3 mph 2.3 mph 23 % 0.00 in
13:59 98.6 °F 55.6 °F 29.79 in WSW 3.0 mph 3.0 mph 24 % 0.00 in
14:04 98.9 °F 54.6 °F 29.79 in Calm   0.3 mph 23 % 0.00 in
14:09 98.7 °F 53.3 °F 29.79 in NW 3.5 mph 3.5 mph 22 % 0.00 in
14:14 98.7 °F 56.8 °F 29.79 in NW 3.5 mph 3.5 mph 25 % 0.00 in
14:19 98.3 °F 55.3 °F 29.78 in WNW 3.5 mph 3.5 mph 24 % 0.00 in
14:24 98.2 °F 55.2 °F 29.78 in WSW 3.0 mph 3.0 mph 24 % 0.00 in
14:29 98.8 °F 56.9 °F 29.78 in WNW 3.5 mph 3.5 mph 25 % 0.00 in
14:34 98.9 °F 56.9 °F 29.78 in NNE 2.3 mph 2.3 mph 25 % 0.00 in
14:39 99.1 °F 57.1 °F 29.78 in North 3.5 mph 3.5 mph 25 % 0.00 in
14:44 99.1 °F 56.0 °F 29.77 in West 2.0 mph 2.0 mph 24 % 0.00 in
14:49 99.4 °F 56.2 °F 29.77 in West 2.3 mph 2.3 mph 24 % 0.00 in
14:54 100.1 °F 54.4 °F 29.77 in WNW 3.5 mph 3.5 mph 22 % 0.00 in
15:00 100.2 °F 56.9 °F 29.77 in NNW 2.3 mph 2.3 mph 24 % 0.00 in
15:05 100.5 °F 58.3 °F 29.77 in NE 1.2 mph 1.2 mph 25 % 0.00 in
15:10 101.3 °F 60.1 °F 29.76 in East 3.5 mph 3.5 mph 26 % 0.00 in
15:15 101.1 °F 59.9 °F 29.76 in NE 3.5 mph 3.5 mph 26 % 0.00 in
15:20 100.7 °F 62.6 °F 29.76 in NNW 1.2 mph   29 % 0.00 in
15:25 100.8 °F 58.5 °F 29.76 in WNW 2.3 mph 2.3 mph 25 % 0.00 in
15:30 100.7 °F 56.1 °F 29.76 in NNW 2.3 mph 2.3 mph 23 % 0.00 in
15:35 100.2 °F 58.0 °F 29.76 in NE 1.2 mph 1.2 mph 25 % 0.00 in
15:40 100.2 °F 56.9 °F 29.76 in NW 3.5 mph 3.5 mph 24 % 0.00 in
15:45 100.2 °F 55.7 °F 29.76 in SE 1.2 mph 1.2 mph 23 % 0.00 in
15:50 100.4 °F 60.4 °F 29.75 in North 1.2 mph   27 % 0.00 in
15:55 101.0 °F 60.9 °F 29.75 in SSW 1.2 mph   27 % 0.00 in
16:00 101.5 °F 59.1 °F 29.75 in NNW 2.3 mph 2.3 mph 25 % 0.00 in
16:05 101.6 °F 55.7 °F 29.75 in WNW 2.3 mph 2.3 mph 22 % 0.00 in
16:10 101.1 °F 59.9 °F 29.75 in Calm     26 % 0.00 in
16:15 101.5 °F 59.1 °F 29.74 in NW 2.3 mph 2.3 mph 25 % 0.00 in
16:20 101.4 °F 59.0 °F 29.74 in SSE 2.0 mph 2.0 mph 25 % 0.00 in
16:25 101.6 °F 59.2 °F 29.74 in West 2.0 mph 2.0 mph 25 % 0.00 in
16:30 101.4 °F 57.9 °F 29.74 in NE 2.3 mph 2.3 mph 24 % 0.00 in
16:35 101.4 °F 57.9 °F 29.74 in WSW 3.5 mph 3.5 mph 24 % 0.00 in
16:40 101.3 °F 54.1 °F 29.73 in NW 2.3 mph 2.3 mph 21 % 0.00 in
16:45 101.2 °F 56.6 °F 29.73 in NW 1.2 mph 1.2 mph 23 % 0.00 in
16:50 101.2 °F 58.9 °F 29.73 in Calm     25 % 0.00 in
16:55 101.3 °F 59.0 °F 29.73 in WNW 1.2 mph 1.2 mph 25 % 0.00 in
17:00 101.5 °F 60.2 °F 29.73 in West 2.0 mph 2.0 mph 26 % 0.00 in
17:05 101.4 °F 61.2 °F 29.73 in SE 1.2 mph 1.2 mph 27 % 0.00 in
17:06 101.4 °F 60.1 °F 29.73 in East 2.3 mph 2.3 mph 26 % 0.00 in
17:11 101.2 °F 60.0 °F 29.73 in NW 1.2 mph 1.2 mph 26 % 0.00 in
17:16 101.1 °F 61.0 °F 29.73 in ESE 2.3 mph 2.3 mph 27 % 0.00 in
17:21 101.0 °F 58.7 °F 29.73 in NW 1.2 mph 1.2 mph 25 % 0.00 in
17:26 101.0 °F 59.8 °F 29.73 in East 1.2 mph 1.2 mph 26 % 0.00 in
17:31 100.9 °F 58.6 °F 29.73 in NNE 2.3 mph 2.3 mph 25 % 0.00 in
17:36 100.9 °F 59.7 °F 29.72 in NW 1.2 mph 1.2 mph 26 % 0.00 in
17:41 100.6 °F 58.4 °F 29.72 in NW 1.0 mph 1.0 mph 25 % 0.00 in
17:46 100.5 °F 57.2 °F 29.72 in NW 1.2 mph   24 % 0.00 in
17:51 100.4 °F 55.9 °F 29.72 in NW 3.5 mph 3.5 mph 23 % 0.00 in
17:56 100.2 °F 58.0 °F 29.72 in NW 2.0 mph 2.0 mph 25 % 0.00 in
18:01 100.2 °F 58.0 °F 29.72 in North 1.0 mph 1.0 mph 25 % 0.00 in
18:06 99.9 °F 57.8 °F 29.72 in NNW 1.2 mph 1.2 mph 25 % 0.00 in
18:11 99.7 °F 57.6 °F 29.72 in WSW 1.2 mph 1.2 mph 25 % 0.00 in
18:16 99.6 °F 61.7 °F 29.72 in Calm   0.1 mph 29 % 0.00 in
18:21 99.5 °F 60.6 °F 29.72 in Calm   0.1 mph 28 % 0.00 in
18:26 99.5 °F 56.3 °F 29.72 in WSW 1.2 mph   24 % 0.00 in
18:31 99.4 °F 57.4 °F 29.72 in SW 1.2 mph   25 % 0.00 in
18:36 99.5 °F 59.6 °F 29.72 in Calm     27 % 0.00 in
18:41 99.4 °F 62.5 °F 29.72 in WNW 1.2 mph 1.2 mph 30 % 0.00 in
18:46 98.8 °F 63.8 °F 29.72 in SSW 1.2 mph 1.2 mph 32 % 0.00 in
18:51 98.1 °F 62.3 °F 29.72 in Calm     31 % 0.00 in
18:56 97.8 °F 62.9 °F 29.71 in Calm     32 % 0.00 in
19:01 97.5 °F 64.4 °F 29.72 in Calm     34 % 0.00 in
19:06 97.1 °F 64.9 °F 29.72 in Calm     35 % 0.00 in
19:11 96.6 °F 66.1 °F 29.71 in Calm     37 % 0.00 in
19:16 96.1 °F 66.4 °F 29.72 in Calm     38 % 0.00 in
19:21 95.5 °F 67.3 °F 29.72 in Calm     40 % 0.00 in
19:27 94.9 °F 68.2 °F 29.72 in Calm     42 % 0.00 in
19:32 93.9 °F 66.6 °F 29.72 in Calm     41 % 0.00 in
19:37 93.1 °F 66.6 °F 29.72 in Calm     42 % 0.00 in
19:42 92.6 °F 68.8 °F 29.72 in Calm     46 % 0.00 in
19:47 92.2 °F 67.8 °F 29.72 in Calm     45 % 0.00 in
19:52 91.8 °F 68.1 °F 29.72 in Calm     46 % 0.00 in
19:57 91.4 °F 67.7 °F 29.72 in West 1.2 mph 1.2 mph 46 % 0.00 in
20:02 91.1 °F 68.1 °F 29.72 in Calm     47 % 0.00 in
20:07 90.6 °F 66.3 °F 29.72 in Calm     45 % 0.00 in
20:12 90.3 °F 67.3 °F 29.72 in Calm     47 % 0.00 in
20:17 89.9 °F 67.0 °F 29.72 in Calm     47 % 0.00 in
20:22 89.4 °F 65.9 °F 29.73 in Calm     46 % 0.00 in
20:27 89.0 °F 66.2 °F 29.73 in Calm     47 % 0.00 in
20:32 88.6 °F 65.8 °F 29.73 in Calm     47 % 0.00 in
20:37 88.3 °F 65.5 °F 29.73 in Calm     47 % 0.00 in
20:42 88.0 °F 67.0 °F 29.73 in Calm     50 % 0.00 in
20:47 87.7 °F 66.2 °F 29.73 in Calm     49 % 0.00 in
20:52 87.6 °F 64.9 °F 29.73 in Calm     47 % 0.00 in
20:57 87.6 °F 64.3 °F 29.73 in Calm     46 % 0.00 in
21:02 87.4 °F 63.5 °F 29.74 in Calm     45 % 0.00 in
21:07 87.0 °F 64.9 °F 29.74 in Calm     48 % 0.00 in
21:12 86.6 °F 64.0 °F 29.74 in Calm     47 % 0.00 in
21:17 86.1 °F 65.9 °F 29.74 in Calm     51 % 0.00 in
21:22 85.5 °F 67.0 °F 29.75 in Calm     54 % 0.00 in
21:27 84.8 °F 66.3 °F 29.75 in Calm     54 % 0.00 in
21:32 84.3 °F 66.9 °F 29.75 in Calm     56 % 0.00 in
21:37 83.9 °F 66.0 °F 29.75 in Calm     55 % 0.00 in
21:42 83.6 °F 64.1 °F 29.75 in West 1.2 mph   52 % 0.00 in
21:47 84.1 °F 65.1 °F 29.75 in Calm     53 % 0.00 in
21:52 84.3 °F 64.2 °F 29.76 in Calm     51 % 0.00 in
21:57 84.8 °F 61.7 °F 29.76 in Calm     46 % 0.00 in
22:02 85.2 °F 61.5 °F 29.76 in West 1.2 mph   45 % 0.00 in
22:07 85.2 °F 62.1 °F 29.76 in NW 1.2 mph 1.2 mph 46 % 0.00 in
22:12 84.8 °F 62.3 °F 29.76 in Calm     47 % 0.00 in
22:17 84.5 °F 62.1 °F 29.77 in Calm     47 % 0.00 in
22:22 84.3 °F 62.5 °F 29.77 in Calm     48 % 0.00 in
22:27 84.0 °F 61.6 °F 29.77 in Calm     47 % 0.00 in
22:32 83.8 °F 61.4 °F 29.77 in Calm   0.1 mph 47 % 0.00 in
22:37 83.7 °F 61.9 °F 29.77 in Calm     48 % 0.00 in
22:42 83.6 °F 61.2 °F 29.77 in Calm     47 % 0.00 in
22:47 83.5 °F 61.1 °F 29.77 in Calm     47 % 0.00 in
22:52 83.2 °F 60.3 °F 29.77 in Calm     46 % 0.00 in
22:58 82.9 °F 61.8 °F 29.77 in Calm     49 % 0.00 in
23:03 82.4 °F 61.3 °F 29.77 in Calm     49 % 0.00 in
23:08 82.0 °F 57.9 °F 29.77 in NW 2.3 mph 2.3 mph 44 % 0.00 in
23:13 82.4 °F 59.5 °F 29.77 in WNW 1.2 mph 1.2 mph 46 % 0.00 in
23:18 82.0 °F 58.6 °F 29.78 in Calm     45 % 0.00 in
23:23 81.7 °F 59.5 °F 29.78 in Calm     47 % 0.00 in
23:28 81.1 °F 59.0 °F 29.78 in Calm     47 % 0.00 in
23:33 80.5 °F 59.0 °F 29.78 in Calm     48 % 0.00 in
23:38 79.9 °F 59.0 °F 29.78 in Calm     49 % 0.00 in
23:43 79.4 °F 59.7 °F 29.78 in Calm     51 % 0.00 in
23:48 78.7 °F 58.5 °F 29.78 in Calm     50 % 0.00 in
23:53 78.0 °F 57.9 °F 29.78 in Calm     50 % 0.00 in
23:58 77.4 °F 58.9 °F 29.78 in Calm     53 % 0.00 in
Park Place, Exeter, Tulare County, California, USA
Compliments of Weather Underground - 2.75 mb